Regional Weather Roundup
Issued by NWS Jackson, KY

Home | Current Version | Previous Version | Text Only | Print | Product List | Glossary Off
Versions: 1 2 3 4 5 6 7 8 9 10 11 12 13 14 15 16 17 18 19 20 21 22 23 24 25 26 27 28

000
ASUS43 KJKL 161210
RWRJKL

EAST KENTUCKY HOURLY WEATHER ROUNDUP
NATIONAL WEATHER SERVICE JACKSON KY
700 AM EST SAT DEC 16 2017

NOTE: "FAIR" INDICATES FEW OR NO CLOUDS BELOW 12,000 FEET WITH
NO SIGNIFICANT WEATHER AND/OR OBSTRUCTIONS TO VISIBILITY.

* THESE REPORTS ARE NOT UNDER NWS QUALITY CONTROL AND MAY NOT
  REPORT WEATHER SUCH AS PRECIPITATION AND FOG.

KYZ079-080-083-085-087-088-110-112-115-119-120-161300
...EASTERN KENTUCKY...

CITY           SKY/WX    TMP DP  RH WIND       PRES   REMARKS
JACKSON        PTCLDY    29  21  72 SW6       30.15F WCI  23
6HR MIN TEMP:  29; 6HR MAX TEMP:  31;

LONDON         CLEAR     29  21  72 S7        30.19R WCI  22
6HR MIN TEMP:  25; 6HR MAX TEMP:  30;

SOMERSET*      CLEAR     28  21  74 S7        30.21F WCI  21
MONTICELLO*    CLEAR     22  19  89 NW8       30.22S WCI  12
6HR MIN TEMP:  21; 6HR MAX TEMP:  31;

WILLIAMSBURG*  SUNNY     27  23  86 SE6       30.21R WCI  20
MIDDLESBORO*   CLOUDY    22  20  94 CALM      30.24R
6HR MIN TEMP:  21; 6HR MAX TEMP:  31;

HARLAN APT*    MOSUNNY   25  21  86 CALM      30.21R
PIKE CO APT*     N/A     31  21  67 S6        30.15F WCI  25
BIG SANDY APT* SUNNY     32  22  66 SW3       30.16S
6HR MIN TEMP:  31; 6HR MAX TEMP:  32;

MOREHEAD APT*  CLOUDY    32  21  64 S9        30.15R WCI  24
$$

KYZ035-036-041-042-044-050-067-078-099-161300
...CENTRAL KENTUCKY...

CITY           SKY/WX    TMP DP  RH WIND       PRES   REMARKS
MT STERLING*   CLEAR     32  25  74 SW8       30.16R WCI  25
FLEMING/MASON* CLEAR     31  24  72 SW13      30.13S WCI  22
DANVILLE*      CLEAR     30  23  74 SW9       30.16S WCI  22
LEXINGTON      CLEAR     31  23  72 S12       30.14R WCI  22
6HR MIN TEMP:  31; 6HR MAX TEMP:  34;

FRANKFORT      CLEAR     32  22  66 S12       30.12R WCI  23
6HR MIN TEMP:  32; 6HR MAX TEMP:  36;

LOUISVILLE     CLEAR     35  25  66 SW8       30.13R WCI  29
6HR MIN TEMP:  34; 6HR MAX TEMP:  39;

LEBANON*         N/A     32  23  69 S10G16    30.15S WCI  24
GLASGOW*       CLEAR     30  24  81 S3        30.18S
BOWLING GREEN  CLEAR     30  25  81 S6        30.19R WCI  24
6HR MIN TEMP:  30; 6HR MAX TEMP:  33;

$$

KYZ091>093-OHZ055-061-077-WVZ005-015-034-035-042-161300
...SOUTHERN OHIO/WEST VIRGINIA...

CITY           SKY/WX    TMP DP  RH WIND       PRES   REMARKS
COVINGTON      PTCLDY    32  25  75 SW9       30.07S WCI  24
COLUMBUS       CLOUDY    34  24  67 SW10      30.04S WCI  26
DAYTON         CLOUDY    32  26  78 SW13      30.03S WCI  22
WILMINGTON     CLOUDY    33  25  72 SW14      30.04S WCI  23
HUNTINGTON     PTCLDY    32  21  64 SW7       30.15R WCI  26
CHARLESTON     CLOUDY    32  21  64 SW9       30.14F WCI  24
PINEVILLE*       N/A     21  19  91 MISG      30.21R
BECKLEY        CLEAR     24  18  77 W5        30.11R WCI  18
BLUEFIELD      CLOUDY    23  17  78 W9        30.11R WCI  13
LOGAN CO APT*  CLOUDY    30  21  69 VRB3      30.14R
$$

VAZ002-007-008-TNZ017-027-036-066-071-161300
...SOUTHWEST VIRGINIA/EAST TENNESSEE...

CITY           SKY/WX    TMP DP  RH WIND       PRES   REMARKS
WISE*          PTCLDY    25  21  86 SW7       30.16R WCI  17
JONESVILLE*      N/A     19  18  93 CALM      30.25S
ABINGDON*      CLOUDY    25  22  89 CALM      30.19R
BRISTOL        CLOUDY    22  20  92 CALM      30.22R
MORRISTOWN*    CLOUDY    23  21  93 S3        30.22S
SEVIERVILLE*   CLOUDY    21  19  93 CALM      30.26R
KNOXVILLE      CLOUDY    24  23  96 CALM      30.25R
LAFOLLETTE*    SUNNY     21  19  93 CALM      30.28R
OAK RIDGE      CLOUDY    24  21  88 CALM      30.27R
CROSSVILLE     CLOUDY    23  20  88 S5        30.20R WCI  17
NASHVILLE      CLOUDY    29  23  78 S3        30.22R
$$

...KEY TO REMARKS...
VSB - VISIBILITY IN MILES
WCI - WIND CHILL INDEX
HX  - HEAT INDEX

$$




USA.gov is the U.S. government's official web portal to all federal, state and local government web resources and services.